Weather History for Lander, WY

Change the Weather History Date:

Saturday, August 16, 2014

  Actual Average Record
Temperature  
Mean Temperature 72 °F 70 °F  
Max Temperature 89 °F 86 °F 95 °F (2007)
Min Temperature 54 °F 55 °F 33 °F (1893)
Degree Days  
Heating Degree Days 0 1  
Month to date heating degree days 0 4  
Since 1 June heating degree days 139 146  
Since 1 July heating degree days 3 20  
Cooling Degree Days 7 6  
Month to date cooling degree days 91 106  
Year to date cooling degree days 374 383  
Since 1 June cooling degree days 356 378  
Growing Degree Days 23 (Base 50)    
Moisture  
Dew Point 36 °F    
Average Humidity 37    
Maximum Humidity 62    
Minimum Humidity 12    
Precipitation  
Precipitation 0.00 in 0.01 in 0.32 in (1992)
Month to date precipitation 0.78 0.36  
Year to date precipitation 6.19 8.63  
Snow  
Snow 0.00 in 0.00 in - ()
Month to date snowfall 0.0 0.0  
Since 1 June snowfall 0.0 0.1  
Since 1 July snowfall 0.0 0.0  
Snow Depth 0.00 in    
Sea Level Pressure  
Sea Level Pressure 29.94 in    
Wind  
Wind Speed 7 mph (West)    
Max Wind Speed 21 mph    
Max Gust Speed 26 mph    
Visibility 10 miles    
Events      
T = Trace of Precipitation, MM = Missing Value Source: NWS Daily Summary

Daily Weather History Graph

Daily Weather History Graph

Search for Another Location

Airport:

Trip Planner

Search our weather history database for the weather conditions in past years. The results will help you decide how hot, cold, wet, or windy it might be!

Date:

Astronomy

Aug. 16, 2014 Rise Set
Actual Time 6:22 AM MDT 8:15 PM MDT
Civil Twilight 5:51 AM MDT 8:45 PM MDT
Nautical Twilight 5:14 AM MDT 9:22 PM MDT
Astronomical Twilight 4:34 AM MDT 10:02 PM MDT
Moon 11:50 PM MDT (8/16) 1:22 PM MDT (8/16)
Length of Visible Light 14h 53m
Length of Day
13h 52m
Waning Gibbous, 58% of the Moon is Illuminated
Aug 16
Waning Gibbous
Aug 17
Last Quarter
Aug 25
New
Sep 2
First Quarter
Sep 8
Full

Hourly Weather History & Observations

Time (MDT) Temp. Dew Point Humidity Pressure Visibility Wind Dir Wind Speed Gust Speed Precip Events Conditions
12:53 AM 64.0 °F 42.1 °F 45% 29.94 in 10.0 mi SW 4.6 mph - N/A   Clear
1:53 AM 61.0 °F 43.0 °F 52% 29.93 in 10.0 mi Calm Calm - N/A   Clear
2:53 AM 61.0 °F 41.0 °F 48% 29.92 in 10.0 mi Calm Calm - N/A   Clear
3:53 AM 60.1 °F 39.0 °F 46% 29.94 in 10.0 mi Variable 4.6 mph - N/A   Clear
4:53 AM 57.0 °F 41.0 °F 55% 29.95 in 10.0 mi North 5.8 mph - N/A   Clear
5:53 AM 57.9 °F 37.9 °F 47% 29.97 in 10.0 mi West 10.4 mph - N/A   Clear
6:53 AM 61.0 °F 37.0 °F 41% 29.97 in 10.0 mi WSW 10.4 mph - N/A   Clear
7:53 AM 57.9 °F 44.1 °F 60% 29.99 in 10.0 mi Calm Calm - N/A   Clear
8:53 AM 66.0 °F 45.0 °F 47% 29.99 in 10.0 mi ESE 3.5 mph - N/A   Clear
9:53 AM 75.0 °F 42.1 °F 31% 29.97 in 10.0 mi ESE 4.6 mph - N/A   Clear
10:53 AM 78.1 °F 41.0 °F 27% 29.96 in 10.0 mi East 6.9 mph - N/A   Clear
11:53 AM 80.1 °F 42.1 °F 26% 29.95 in 10.0 mi ESE 5.8 mph - N/A   Clear
12:53 PM 84.0 °F 37.9 °F 19% 29.92 in 10.0 mi NNE 8.1 mph - N/A   Clear
1:53 PM 84.0 °F 33.1 °F 16% 29.91 in 10.0 mi Variable 3.5 mph - N/A   Clear
2:51 PM 89.6 °F 30.2 °F 12% 30.11 in 10.0 mi West 10.4 mph 23.0 mph N/A   Clear
2:53 PM 89.1 °F 30.0 °F 12% 29.89 in 10.0 mi WNW 11.5 mph 23.0 mph N/A   Clear
3:53 PM 88.0 °F 30.9 °F 13% 29.87 in 10.0 mi WNW 17.3 mph 21.9 mph N/A   Clear
4:53 PM 89.1 °F 30.0 °F 12% 29.88 in 10.0 mi NW 9.2 mph - N/A   Clear
5:53 PM 88.0 °F 28.9 °F 12% 29.87 in 10.0 mi NW 10.4 mph 17.3 mph N/A   Clear
6:53 PM 84.0 °F 32.0 °F 15% 29.88 in 10.0 mi West 11.5 mph - N/A   Clear
7:53 PM 77.0 °F 34.0 °F 21% 29.92 in 10.0 mi WSW 10.4 mph - N/A   Clear
8:53 PM 73.0 °F 33.1 °F 23% 29.92 in 10.0 mi West 11.5 mph - N/A   Clear
9:53 PM 73.0 °F 32.0 °F 22% 29.94 in 10.0 mi WSW 13.8 mph - N/A   Clear
10:53 PM 71.1 °F 32.0 °F 24% 29.94 in 10.0 mi East 3.5 mph - N/A   Clear
11:53 PM 66.0 °F 32.0 °F 28% 29.95 in 10.0 mi SSW 4.6 mph - N/A   Clear